Time,TemperatureF,DewpointF,PressureIn,WindDirection,WindDirectionDegrees,WindSpeedMPH,WindSpeedGustMPH,Humidity,HourlyPrecipIn,Conditions,Clouds,dailyrainin,SoftwareType,DateUTC
2013-01-30 00:02:00,71.9,67.5,30.09,SE,134,2.0,7.0,86,0.00,,,0.00,Wunderground v.1.13,2013-01-30 05:02:00,
2013-01-30 00:04:00,71.9,67.5,30.09,SSE,159,3.0,7.0,86,0.00,,,0.00,Wunderground v.1.13,2013-01-30 05:04:00,
2013-01-30 00:06:00,71.9,67.5,30.09,SSE,160,3.0,5.0,86,0.00,,,0.00,Wunderground v.1.13,2013-01-30 05:06:00,
2013-01-30 00:12:00,72.0,67.6,30.09,SSE,150,3.0,3.0,86,0.00,,,0.00,Wunderground v.1.13,2013-01-30 05:12:00,
2013-01-30 00:18:00,71.9,67.5,30.08,SSE,157,2.0,2.0,86,0.00,,,0.00,Wunderground v.1.13,2013-01-30 05:18:00,
2013-01-30 00:24:00,71.8,67.4,30.08,SSE,161,1.0,1.0,86,0.00,,,0.00,Wunderground v.1.13,2013-01-30 05:24:00,
2013-01-30 00:30:00,71.6,67.5,30.08,SSE,152,1.0,7.0,87,0.00,,,0.00,Wunderground v.1.13,2013-01-30 05:30:00,
2013-01-30 00:36:00,71.3,67.2,30.08,ESE,123,2.0,2.0,87,0.00,,,0.00,Wunderground v.1.13,2013-01-30 05:36:00,
2013-01-30 00:42:00,71.0,67.3,30.08,SSE,165,0.0,0.0,88,0.00,,,0.00,Wunderground v.1.13,2013-01-30 05:42:00,
2013-01-30 00:48:00,70.7,67.0,30.09,SSE,165,0.0,0.0,88,0.00,,,0.00,Wunderground v.1.13,2013-01-30 05:48:00,
2013-01-30 00:54:00,70.6,67.2,30.08,SSE,152,0.0,0.0,89,0.00,,,0.00,Wunderground v.1.13,2013-01-30 05:54:00,
2013-01-30 01:00:00,70.4,67.0,30.08,SSE,157,0.0,0.0,89,0.00,,,0.00,Wunderground v.1.13,2013-01-30 06:00:00,
2013-01-30 01:06:00,70.3,66.9,30.08,SSE,157,0.0,0.0,89,0.00,,,0.00,Wunderground v.1.13,2013-01-30 06:06:00,
2013-01-30 01:12:00,70.2,67.1,30.09,South,169,0.0,0.0,90,0.00,,,0.00,Wunderground v.1.13,2013-01-30 06:12:00,
2013-01-30 01:18:00,70.2,67.1,30.09,SSE,157,0.0,0.0,90,0.00,,,0.00,Wunderground v.1.13,2013-01-30 06:18:00,
2013-01-30 01:24:00,70.1,67.0,30.09,SSE,159,1.0,1.0,90,0.00,,,0.00,Wunderground v.1.13,2013-01-30 06:24:00,
2013-01-30 01:30:00,70.0,66.9,30.09,SSE,159,2.0,2.0,90,0.00,,,0.00,Wunderground v.1.13,2013-01-30 06:30:00,
2013-01-30 01:36:00,69.9,66.8,30.09,SSE,160,2.0,2.0,90,0.00,,,0.00,Wunderground v.1.13,2013-01-30 06:36:00,
2013-01-30 01:42:00,69.8,66.7,30.08,SSE,160,2.0,2.0,90,0.00,,,0.00,Wunderground v.1.13,2013-01-30 06:42:00,
2013-01-30 01:48:00,69.6,66.5,30.09,SSE,158,2.0,2.0,90,0.00,,,0.00,Wunderground v.1.13,2013-01-30 06:48:00,
2013-01-30 01:54:00,69.5,66.4,30.08,SSE,162,2.0,6.0,90,0.00,,,0.00,Wunderground v.1.13,2013-01-30 06:54:00,
2013-01-30 02:00:00,69.5,66.1,30.08,SSE,163,4.0,4.0,89,0.00,,,0.00,Wunderground v.1.13,2013-01-30 07:00:00,
2013-01-30 02:06:00,69.4,66.0,30.08,SSE,151,5.0,5.0,89,0.00,,,0.00,Wunderground v.1.13,2013-01-30 07:06:00,
2013-01-30 02:12:00,69.3,65.9,30.08,SSE,161,4.0,4.0,89,0.00,,,0.00,Wunderground v.1.13,2013-01-30 07:12:00,
2013-01-30 02:18:00,69.3,65.9,30.07,SSE,159,4.0,4.0,89,0.00,,,0.00,Wunderground v.1.13,2013-01-30 07:18:00,
2013-01-30 02:24:00,69.2,65.8,30.07,SSE,164,5.0,9.0,89,0.00,,,0.00,Wunderground v.1.13,2013-01-30 07:24:00,
2013-01-30 02:30:00,69.2,65.8,30.07,SSE,156,6.0,6.0,89,0.00,,,0.00,Wunderground v.1.13,2013-01-30 07:30:00,
2013-01-30 02:36:00,69.2,65.8,30.07,SE,146,6.0,6.0,89,0.00,,,0.00,Wunderground v.1.13,2013-01-30 07:36:00,
2013-01-30 02:42:00,69.1,66.0,30.07,SSE,164,5.0,6.0,90,0.00,,,0.00,Wunderground v.1.13,2013-01-30 07:42:00,
2013-01-30 02:48:00,69.1,66.0,30.07,SE,144,6.0,6.0,90,0.00,,,0.00,Wunderground v.1.13,2013-01-30 07:48:00,
2013-01-30 02:54:00,69.0,65.9,30.07,SSE,160,6.0,9.0,90,0.00,,,0.00,Wunderground v.1.13,2013-01-30 07:54:00,
2013-01-30 03:00:00,69.0,65.9,30.07,SSE,148,6.0,10.0,90,0.00,,,0.00,Wunderground v.1.13,2013-01-30 08:00:00,
2013-01-30 03:06:00,69.0,65.9,30.07,SE,134,6.0,10.0,90,0.00,,,0.00,Wunderground v.1.13,2013-01-30 08:06:00,
2013-01-30 03:12:00,68.9,65.8,30.06,SSE,168,6.0,6.0,90,0.00,,,0.00,Wunderground v.1.13,2013-01-30 08:12:00,
2013-01-30 03:18:00,68.9,65.5,30.06,SSE,160,4.0,4.0,89,0.00,,,0.00,Wunderground v.1.13,2013-01-30 08:18:00,
2013-01-30 03:24:00,68.8,65.7,30.06,South,173,2.0,4.0,90,0.00,,,0.00,Wunderground v.1.13,2013-01-30 08:24:00,
2013-01-30 03:30:00,68.8,65.7,30.06,SE,142,3.0,9.0,90,0.00,,,0.00,Wunderground v.1.13,2013-01-30 08:30:00,
2013-01-30 03:36:00,68.7,65.6,30.05,SSE,161,5.0,5.0,90,0.00,,,0.00,Wunderground v.1.13,2013-01-30 08:36:00,
2013-01-30 03:42:00,68.6,65.5,30.05,SSE,152,5.0,5.0,90,0.00,,,0.00,Wunderground v.1.13,2013-01-30 08:42:00,
2013-01-30 03:48:00,68.5,65.4,30.05,SE,144,3.0,4.0,90,0.00,,,0.00,Wunderground v.1.13,2013-01-30 08:48:00,
2013-01-30 03:54:00,68.5,65.4,30.05,South,188,4.0,4.0,90,0.00,,,0.00,Wunderground v.1.13,2013-01-30 08:54:00,
2013-01-30 04:00:00,68.4,65.4,30.05,SSE,153,5.0,6.0,90,0.00,,,0.00,Wunderground v.1.13,2013-01-30 09:00:00,
2013-01-30 04:06:00,68.3,65.3,30.05,SE,141,4.0,4.0,90,0.00,,,0.00,Wunderground v.1.13,2013-01-30 09:06:00,
2013-01-30 04:12:00,68.2,65.2,30.05,SSE,153,4.0,5.0,90,0.00,,,0.00,Wunderground v.1.13,2013-01-30 09:12:00,
2013-01-30 04:18:00,68.2,64.8,30.04,SSE,151,3.0,3.0,89,0.00,,,0.00,Wunderground v.1.13,2013-01-30 09:18:00,
2013-01-30 04:24:00,68.1,65.1,30.04,SSE,165,3.0,3.0,90,0.00,,,0.00,Wunderground v.1.13,2013-01-30 09:24:00,
2013-01-30 04:30:00,68.0,65.0,30.04,SE,144,4.0,4.0,90,0.00,,,0.00,Wunderground v.1.13,2013-01-30 09:30:00,
2013-01-30 04:36:00,67.9,64.9,30.04,SSE,148,4.0,4.0,90,0.00,,,0.00,Wunderground v.1.13,2013-01-30 09:36:00,
2013-01-30 04:42:00,67.9,64.9,30.04,SSE,167,3.0,3.0,90,0.00,,,0.00,Wunderground v.1.13,2013-01-30 09:42:00,
2013-01-30 04:48:00,67.7,64.7,30.04,SSE,162,3.0,3.0,90,0.00,,,0.00,Wunderground v.1.13,2013-01-30 09:48:00,
2013-01-30 04:54:00,67.6,64.6,30.04,SSE,156,1.0,1.0,90,0.00,,,0.00,Wunderground v.1.13,2013-01-30 09:54:00,
2013-01-30 05:00:00,67.6,64.6,30.04,SSE,159,0.0,3.0,90,0.00,,,0.00,Wunderground v.1.13,2013-01-30 10:00:00,
2013-01-30 05:06:00,67.5,64.5,30.04,South,184,2.0,2.0,90,0.00,,,0.00,Wunderground v.1.13,2013-01-30 10:06:00,
2013-01-30 05:12:00,67.5,64.5,30.04,SSE,162,3.0,7.0,90,0.00,,,0.00,Wunderground v.1.13,2013-01-30 10:12:00,
2013-01-30 05:18:00,67.4,64.4,30.04,SSE,162,3.0,8.0,90,0.00,,,0.00,Wunderground v.1.13,2013-01-30 10:18:00,
2013-01-30 05:24:00,67.4,64.4,30.03,SSE,159,4.0,4.0,90,0.00,,,0.00,Wunderground v.1.13,2013-01-30 10:24:00,
2013-01-30 05:30:00,67.4,64.4,30.04,SSE,168,4.0,4.0,90,0.00,,,0.00,Wunderground v.1.13,2013-01-30 10:30:00,
2013-01-30 05:36:00,67.4,64.4,30.03,SSE,147,3.0,3.0,90,0.00,,,0.00,Wunderground v.1.13,2013-01-30 10:36:00,
2013-01-30 05:42:00,67.4,64.4,30.03,SSE,159,3.0,3.0,90,0.00,,,0.00,Wunderground v.1.13,2013-01-30 10:42:00,
2013-01-30 05:48:00,67.3,64.3,30.03,SSE,160,2.0,2.0,90,0.00,,,0.00,Wunderground v.1.13,2013-01-30 10:48:00,
2013-01-30 05:54:00,67.2,64.2,30.03,SSE,161,2.0,5.0,90,0.00,,,0.00,Wunderground v.1.13,2013-01-30 10:54:00,
2013-01-30 06:00:00,67.2,64.2,30.03,SSE,163,4.0,4.0,90,0.00,,,0.00,Wunderground v.1.13,2013-01-30 11:00:00,
2013-01-30 06:06:00,67.2,64.2,30.04,SSE,160,3.0,3.0,90,0.00,,,0.00,Wunderground v.1.13,2013-01-30 11:06:00,
2013-01-30 06:12:00,67.1,64.1,30.03,SE,143,2.0,2.0,90,0.00,,,0.00,Wunderground v.1.13,2013-01-30 11:12:00,
2013-01-30 06:18:00,67.1,64.1,30.03,SSE,152,4.0,4.0,90,0.00,,,0.00,Wunderground v.1.13,2013-01-30 11:18:00,
2013-01-30 06:24:00,67.0,64.0,30.03,SE,126,4.0,4.0,90,0.00,,,0.00,Wunderground v.1.13,2013-01-30 11:24:00,
2013-01-30 06:30:00,67.0,64.0,30.03,SSE,158,3.0,7.0,90,0.00,,,0.00,Wunderground v.1.13,2013-01-30 11:30:00,
2013-01-30 06:36:00,67.0,64.0,30.03,SSE,159,3.0,7.0,90,0.00,,,0.00,Wunderground v.1.13,2013-01-30 11:36:00,
2013-01-30 06:42:00,67.0,64.0,30.03,SSE,157,5.0,5.0,90,0.00,,,0.00,Wunderground v.1.13,2013-01-30 11:42:00,
2013-01-30 06:48:00,67.0,64.0,30.03,South,171,3.0,5.0,90,0.00,,,0.00,Wunderground v.1.13,2013-01-30 11:48:00,
2013-01-30 06:54:00,67.0,64.0,30.03,SSE,150,3.0,3.0,90,0.00,,,0.00,Wunderground v.1.13,2013-01-30 11:54:00,
2013-01-30 07:00:00,67.0,64.0,30.03,SSE,147,5.0,5.0,90,0.00,,,0.00,Wunderground v.1.13,2013-01-30 12:00:00,
2013-01-30 07:06:00,67.0,64.0,30.03,SSE,153,4.0,4.0,90,0.00,,,0.00,Wunderground v.1.13,2013-01-30 12:06:00,
2013-01-30 07:12:00,67.0,64.0,30.03,SSE,164,4.0,4.0,90,0.00,,,0.00,Wunderground v.1.13,2013-01-30 12:12:00,
2013-01-30 07:18:00,66.9,63.9,30.03,South,189,5.0,5.0,90,0.00,,,0.00,Wunderground v.1.13,2013-01-30 12:18:00,
2013-01-30 07:24:00,66.9,64.2,30.03,SSE,156,4.0,5.0,91,0.00,,,0.00,Wunderground v.1.13,2013-01-30 12:24:00,
2013-01-30 07:30:00,66.9,64.2,30.03,SSE,150,4.0,4.0,91,0.00,,,0.00,Wunderground v.1.13,2013-01-30 12:30:00,
2013-01-30 07:36:00,67.0,64.3,30.04,South,169,3.0,3.0,91,0.00,,,0.00,Wunderground v.1.13,2013-01-30 12:36:00,
2013-01-30 07:42:00,66.9,64.2,30.03,SSE,163,3.0,6.0,91,0.00,,,0.00,Wunderground v.1.13,2013-01-30 12:42:00,
2013-01-30 07:48:00,67.0,64.3,30.03,SSE,149,3.0,3.0,91,0.00,,,0.00,Wunderground v.1.13,2013-01-30 12:48:00,
2013-01-30 07:54:00,67.0,64.3,30.03,SSE,156,4.0,4.0,91,0.00,,,0.00,Wunderground v.1.13,2013-01-30 12:54:00,
2013-01-30 08:00:00,67.2,64.5,30.04,SE,141,4.0,4.0,91,0.00,,,0.00,Wunderground v.1.13,2013-01-30 13:00:00,
2013-01-30 08:06:00,67.4,64.4,30.03,SSE,147,3.0,8.0,90,0.00,,,0.00,Wunderground v.1.13,2013-01-30 13:06:00,
2013-01-30 08:12:00,67.7,64.7,30.04,SSE,163,3.0,3.0,90,0.00,,,0.00,Wunderground v.1.13,2013-01-30 13:12:00,
2013-01-30 08:18:00,68.0,64.6,30.03,SSE,157,4.0,4.0,89,0.00,,,0.00,Wunderground v.1.13,2013-01-30 13:18:00,
2013-01-30 08:24:00,68.3,64.9,30.03,SSE,155,2.0,2.0,89,0.00,,,0.00,Wunderground v.1.13,2013-01-30 13:24:00,
2013-01-30 08:30:00,68.6,64.9,30.04,SSE,163,3.0,4.0,88,0.00,,,0.00,Wunderground v.1.13,2013-01-30 13:30:00,
2013-01-30 08:36:00,68.9,65.2,30.03,SE,140,7.0,8.0,88,0.00,,,0.00,Wunderground v.1.13,2013-01-30 13:36:00,
2013-01-30 08:42:00,69.3,65.6,30.03,SSE,151,5.0,5.0,88,0.00,,,0.00,Wunderground v.1.13,2013-01-30 13:42:00,
2013-01-30 08:48:00,69.6,65.6,30.02,SSE,166,4.0,4.0,87,0.00,,,0.00,Wunderground v.1.13,2013-01-30 13:48:00,
2013-01-30 08:54:00,70.0,66.0,30.02,SSE,151,7.0,13.0,87,0.00,,,0.00,Wunderground v.1.13,2013-01-30 13:54:00,
2013-01-30 09:00:00,70.4,66.0,30.02,SSE,147,6.0,6.0,86,0.00,,,0.00,Wunderground v.1.13,2013-01-30 14:00:00,
2013-01-30 09:06:00,70.9,66.2,30.02,SE,142,3.0,15.0,85,0.00,,,0.00,Wunderground v.1.13,2013-01-30 14:06:00,
2013-01-30 09:12:00,71.4,66.3,30.02,SSE,158,3.0,3.0,84,0.00,,,0.00,Wunderground v.1.13,2013-01-30 14:12:00,
2013-01-30 09:18:00,71.9,66.5,30.02,SE,137,2.0,8.0,83,0.00,,,0.00,Wunderground v.1.13,2013-01-30 14:18:00,
2013-01-30 09:24:00,72.1,66.3,30.02,SSE,149,4.0,6.0,82,0.00,,,0.00,Wunderground v.1.13,2013-01-30 14:24:00,
2013-01-30 09:30:00,72.3,66.5,30.01,SSE,165,7.0,9.0,82,0.00,,,0.00,Wunderground v.1.13,2013-01-30 14:30:00,
2013-01-30 09:36:00,72.8,66.3,30.00,SE,145,6.0,8.0,80,0.00,,,0.00,Wunderground v.1.13,2013-01-30 14:36:00,
2013-01-30 09:42:00,72.9,66.4,30.01,SSE,158,8.0,8.0,80,0.00,,,0.00,Wunderground v.1.13,2013-01-30 14:42:00,
2013-01-30 09:48:00,73.3,66.8,30.00,SSE,165,8.0,11.0,80,0.00,,,0.00,Wunderground v.1.13,2013-01-30 14:48:00,
2013-01-30 09:54:00,73.9,67.0,30.00,SSE,158,6.0,6.0,79,0.00,,,0.00,Wunderground v.1.13,2013-01-30 14:54:00,
2013-01-30 10:00:00,74.0,66.7,30.01,SE,127,7.0,10.0,78,0.00,,,0.00,Wunderground v.1.13,2013-01-30 15:00:00,
2013-01-30 10:06:00,74.0,66.7,30.01,SSE,152,9.0,11.0,78,0.00,,,0.00,Wunderground v.1.13,2013-01-30 15:06:00,
2013-01-30 10:12:00,74.0,66.7,30.01,SSE,148,9.0,9.0,78,0.00,,,0.00,Wunderground v.1.13,2013-01-30 15:12:00,
2013-01-30 10:18:00,74.4,67.1,30.01,SSE,165,8.0,13.0,78,0.00,,,0.00,Wunderground v.1.13,2013-01-30 15:18:00,
2013-01-30 10:24:00,74.9,67.2,30.01,SSE,160,7.0,9.0,77,0.00,,,0.00,Wunderground v.1.13,2013-01-30 15:24:00,
2013-01-30 10:30:00,75.1,67.0,30.00,SSE,163,8.0,8.0,76,0.00,,,0.00,Wunderground v.1.13,2013-01-30 15:30:00,
2013-01-30 10:36:00,75.3,67.2,30.00,South,176,8.0,8.0,76,0.00,,,0.00,Wunderground v.1.13,2013-01-30 15:36:00,
2013-01-30 10:42:00,75.7,67.6,30.00,South,188,8.0,8.0,76,0.00,,,0.00,Wunderground v.1.13,2013-01-30 15:42:00,
2013-01-30 10:48:00,76.2,67.7,30.00,SSE,157,8.0,12.0,75,0.00,,,0.00,Wunderground v.1.13,2013-01-30 15:48:00,
2013-01-30 10:54:00,76.4,67.5,29.99,SSW,192,9.0,11.0,74,0.00,,,0.00,Wunderground v.1.13,2013-01-30 15:54:00,
2013-01-30 11:00:00,76.7,67.8,29.99,SSW,202,9.0,11.0,74,0.00,,,0.00,Wunderground v.1.13,2013-01-30 16:00:00,
2013-01-30 11:06:00,77.0,67.7,29.99,South,184,9.0,9.0,73,0.00,,,0.00,Wunderground v.1.13,2013-01-30 16:06:00,
2013-01-30 11:12:00,77.6,67.9,29.99,South,184,6.0,6.0,72,0.00,,,0.00,Wunderground v.1.13,2013-01-30 16:12:00,
2013-01-30 11:18:00,77.5,67.8,30.00,SE,145,8.0,17.0,72,0.00,,,0.00,Wunderground v.1.13,2013-01-30 16:18:00,
2013-01-30 11:24:00,77.7,68.0,29.99,SSE,158,9.0,9.0,72,0.00,,,0.00,Wunderground v.1.13,2013-01-30 16:24:00,
2013-01-30 11:30:00,78.6,68.0,30.00,SE,137,6.0,6.0,70,0.00,,,0.00,Wunderground v.1.13,2013-01-30 16:30:00,
2013-01-30 11:36:00,78.9,67.4,30.00,South,188,6.0,9.0,68,0.00,,,0.00,Wunderground v.1.13,2013-01-30 16:36:00,
2013-01-30 11:42:00,78.7,67.2,30.00,South,182,9.0,9.0,68,0.00,,,0.00,Wunderground v.1.13,2013-01-30 16:42:00,
2013-01-30 11:48:00,78.9,66.6,30.01,South,178,8.0,18.0,66,0.00,,,0.00,Wunderground v.1.13,2013-01-30 16:48:00,
2013-01-30 11:54:00,78.5,66.6,30.01,SW,222,10.0,10.0,67,0.00,,,0.00,Wunderground v.1.13,2013-01-30 16:54:00,
2013-01-30 12:00:00,78.2,66.8,30.00,SSW,199,12.0,13.0,68,0.00,,,0.00,Wunderground v.1.13,2013-01-30 17:00:00,
2013-01-30 12:06:00,78.0,67.0,30.00,South,182,12.0,13.0,69,0.00,,,0.00,Wunderground v.1.13,2013-01-30 17:06:00,
2013-01-30 12:12:00,78.3,66.9,29.99,South,190,9.0,10.0,68,0.00,,,0.00,Wunderground v.1.13,2013-01-30 17:12:00,
2013-01-30 12:18:00,78.9,67.0,29.99,SW,217,6.0,6.0,67,0.00,,,0.00,Wunderground v.1.13,2013-01-30 17:18:00,
2013-01-30 12:24:00,79.1,67.2,29.98,SSW,202,6.0,19.0,67,0.00,,,0.00,Wunderground v.1.13,2013-01-30 17:24:00,
2013-01-30 12:30:00,78.5,66.6,29.98,SSE,160,9.0,9.0,67,0.00,,,0.00,Wunderground v.1.13,2013-01-30 17:30:00,
2013-01-30 12:36:00,79.0,67.1,29.98,South,176,7.0,7.0,67,0.00,,,0.00,Wunderground v.1.13,2013-01-30 17:36:00,
2013-01-30 12:42:00,78.7,66.8,29.98,South,191,8.0,8.0,67,0.00,,,0.00,Wunderground v.1.13,2013-01-30 17:42:00,
2013-01-30 12:48:00,78.8,67.3,29.98,SSW,198,8.0,8.0,68,0.00,,,0.00,Wunderground v.1.13,2013-01-30 17:48:00,
2013-01-30 12:54:00,78.1,66.7,29.98,South,182,9.0,13.0,68,0.00,,,0.00,Wunderground v.1.13,2013-01-30 17:54:00,
2013-01-30 13:00:00,77.7,66.7,29.98,South,184,13.0,13.0,69,0.00,,,0.00,Wunderground v.1.13,2013-01-30 18:00:00,
2013-01-30 13:06:00,77.7,66.7,29.98,South,188,12.0,17.0,69,0.00,,,0.00,Wunderground v.1.13,2013-01-30 18:06:00,
2013-01-30 13:12:00,77.8,67.2,29.98,South,178,11.0,21.0,70,0.00,,,0.00,Wunderground v.1.13,2013-01-30 18:12:00,
2013-01-30 13:18:00,77.9,67.3,29.98,SSW,197,10.0,10.0,70,0.00,,,0.00,Wunderground v.1.13,2013-01-30 18:18:00,
2013-01-30 13:24:00,77.7,67.1,29.98,South,191,11.0,11.0,70,0.00,,,0.00,Wunderground v.1.13,2013-01-30 18:24:00,
2013-01-30 13:30:00,78.3,67.3,29.97,South,182,10.0,10.0,69,0.00,,,0.00,Wunderground v.1.13,2013-01-30 18:30:00,
2013-01-30 13:36:00,78.7,67.7,29.97,SSW,205,8.0,12.0,69,0.00,,,0.00,Wunderground v.1.13,2013-01-30 18:36:00,
2013-01-30 13:42:00,78.7,67.7,29.97,South,170,8.0,8.0,69,0.00,,,0.00,Wunderground v.1.13,2013-01-30 18:42:00,
2013-01-30 13:48:00,78.5,67.9,29.97,SSW,199,7.0,7.0,70,0.00,,,0.00,Wunderground v.1.13,2013-01-30 18:48:00,
2013-01-30 13:54:00,78.4,67.8,29.96,South,178,8.0,12.0,70,0.00,,,0.00,Wunderground v.1.13,2013-01-30 18:54:00,
2013-01-30 14:00:00,78.1,67.5,29.96,SW,218,9.0,13.0,70,0.00,,,0.00,Wunderground v.1.13,2013-01-30 19:00:00,
2013-01-30 14:06:00,78.6,68.0,29.96,SSW,207,8.0,16.0,70,0.00,,,0.00,Wunderground v.1.13,2013-01-30 19:06:00,
2013-01-30 14:12:00,78.3,68.1,29.96,South,184,9.0,20.0,71,0.00,,,0.00,Wunderground v.1.13,2013-01-30 19:12:00,
2013-01-30 14:18:00,77.8,67.6,29.96,SSW,211,11.0,11.0,71,0.00,,,0.00,Wunderground v.1.13,2013-01-30 19:18:00,
2013-01-30 14:24:00,77.8,67.6,29.96,SSW,194,12.0,12.0,71,0.00,,,0.00,Wunderground v.1.13,2013-01-30 19:24:00,
2013-01-30 14:30:00,77.8,68.0,29.96,SW,228,10.0,16.0,72,0.00,,,0.00,Wunderground v.1.13,2013-01-30 19:30:00,
2013-01-30 14:36:00,78.2,68.4,29.96,SSW,209,8.0,8.0,72,0.00,,,0.00,Wunderground v.1.13,2013-01-30 19:36:00,
2013-01-30 14:42:00,77.7,68.0,29.96,South,182,9.0,10.0,72,0.00,,,0.00,Wunderground v.1.13,2013-01-30 19:42:00,
2013-01-30 14:48:00,77.8,68.0,29.95,SW,223,10.0,14.0,72,0.00,,,0.00,Wunderground v.1.13,2013-01-30 19:48:00,
2013-01-30 14:54:00,77.9,68.1,29.95,SSW,198,9.0,23.0,72,0.00,,,0.00,Wunderground v.1.13,2013-01-30 19:54:00,
2013-01-30 15:00:00,77.8,68.0,29.94,South,172,10.0,10.0,72,0.00,,,0.00,Wunderground v.1.13,2013-01-30 20:00:00,
2013-01-30 15:06:00,77.5,67.8,29.94,South,191,12.0,14.0,72,0.00,,,0.00,Wunderground v.1.13,2013-01-30 20:06:00,
2013-01-30 15:12:00,77.5,68.2,29.93,SSW,202,11.0,11.0,73,0.00,,,0.00,Wunderground v.1.13,2013-01-30 20:12:00,
2013-01-30 15:18:00,78.0,67.8,29.94,SSW,199,8.0,10.0,71,0.00,,,0.00,Wunderground v.1.13,2013-01-30 20:18:00,
2013-01-30 15:24:00,77.9,67.7,29.94,SSW,213,8.0,13.0,71,0.00,,,0.00,Wunderground v.1.13,2013-01-30 20:24:00,
2013-01-30 15:30:00,77.8,67.6,29.95,SSW,192,8.0,8.0,71,0.00,,,0.00,Wunderground v.1.13,2013-01-30 20:30:00,
2013-01-30 15:36:00,77.8,66.8,29.94,SSW,213,8.0,22.0,69,0.00,,,0.00,Wunderground v.1.13,2013-01-30 20:36:00,
2013-01-30 15:42:00,77.4,66.4,29.95,SSW,200,10.0,12.0,69,0.00,,,0.00,Wunderground v.1.13,2013-01-30 20:42:00,
2013-01-30 15:48:00,77.4,66.8,29.94,South,171,11.0,11.0,70,0.00,,,0.00,Wunderground v.1.13,2013-01-30 20:48:00,
2013-01-30 15:54:00,77.1,66.1,29.94,South,186,11.0,11.0,69,0.00,,,0.00,Wunderground v.1.13,2013-01-30 20:54:00,
2013-01-30 16:00:00,77.1,67.0,29.94,SSW,207,10.0,10.0,71,0.00,,,0.00,Wunderground v.1.13,2013-01-30 21:00:00,
2013-01-30 16:06:00,76.9,67.2,29.93,South,176,11.0,11.0,72,0.00,,,0.00,Wunderground v.1.13,2013-01-30 21:06:00,
2013-01-30 16:12:00,76.8,67.1,29.93,SSW,194,11.0,11.0,72,0.00,,,0.00,Wunderground v.1.13,2013-01-30 21:12:00,
2013-01-30 16:18:00,76.9,67.2,29.93,South,173,9.0,9.0,72,0.00,,,0.00,Wunderground v.1.13,2013-01-30 21:18:00,
2013-01-30 16:24:00,76.6,67.3,29.93,SSW,194,8.0,9.0,73,0.00,,,0.00,Wunderground v.1.13,2013-01-30 21:24:00,
2013-01-30 16:30:00,76.3,67.4,29.93,SSW,198,11.0,18.0,74,0.00,,,0.00,Wunderground v.1.13,2013-01-30 21:30:00,
2013-01-30 16:36:00,76.2,67.7,29.93,South,187,10.0,10.0,75,0.00,,,0.00,Wunderground v.1.13,2013-01-30 21:36:00,
2013-01-30 16:42:00,76.0,67.5,29.93,SSE,165,10.0,10.0,75,0.00,,,0.00,Wunderground v.1.13,2013-01-30 21:42:00,
2013-01-30 16:48:00,76.1,67.6,29.93,SSW,200,8.0,8.0,75,0.00,,,0.00,Wunderground v.1.13,2013-01-30 21:48:00,
2013-01-30 16:54:00,76.0,67.5,29.94,SSW,196,6.0,9.0,75,0.00,,,0.00,Wunderground v.1.13,2013-01-30 21:54:00,
2013-01-30 17:00:00,75.8,67.7,29.93,SSW,205,7.0,11.0,76,0.00,,,0.00,Wunderground v.1.13,2013-01-30 22:00:00,
2013-01-30 17:06:00,75.7,67.6,29.93,South,184,6.0,6.0,76,0.00,,,0.00,Wunderground v.1.13,2013-01-30 22:06:00,
2013-01-30 17:12:00,75.5,67.8,29.93,South,179,7.0,7.0,77,0.00,,,0.00,Wunderground v.1.13,2013-01-30 22:12:00,
2013-01-30 17:18:00,75.3,67.6,29.93,SSE,166,8.0,8.0,77,0.00,,,0.00,Wunderground v.1.13,2013-01-30 22:18:00,
2013-01-30 17:24:00,75.1,67.4,29.92,SSW,213,8.0,15.0,77,0.00,,,0.00,Wunderground v.1.13,2013-01-30 22:24:00,
2013-01-30 17:30:00,74.9,67.6,29.92,South,186,8.0,8.0,78,0.00,,,0.00,Wunderground v.1.13,2013-01-30 22:30:00,
2013-01-30 17:36:00,74.7,67.4,29.91,South,191,6.0,9.0,78,0.00,,,0.00,Wunderground v.1.13,2013-01-30 22:36:00,
2013-01-30 17:42:00,74.6,67.3,29.91,SSW,200,7.0,7.0,78,0.00,,,0.00,Wunderground v.1.13,2013-01-30 22:42:00,
2013-01-30 17:48:00,74.4,67.5,29.91,SSW,194,9.0,11.0,79,0.00,,,0.00,Wunderground v.1.13,2013-01-30 22:48:00,
2013-01-30 17:54:00,74.3,67.4,29.91,South,176,9.0,9.0,79,0.00,,,0.00,Wunderground v.1.13,2013-01-30 22:54:00,
2013-01-30 18:00:00,74.1,67.2,29.92,SSW,207,6.0,7.0,79,0.00,,,0.00,Wunderground v.1.13,2013-01-30 23:00:00,
2013-01-30 18:06:00,74.0,67.1,29.92,SSW,209,7.0,7.0,79,0.00,,,0.00,Wunderground v.1.13,2013-01-30 23:06:00,
2013-01-30 18:12:00,73.8,66.9,29.92,SSW,201,5.0,5.0,79,0.00,,,0.00,Wunderground v.1.13,2013-01-30 23:12:00,
2013-01-30 18:18:00,73.7,67.1,29.92,South,188,7.0,10.0,80,0.00,,,0.00,Wunderground v.1.13,2013-01-30 23:18:00,
2013-01-30 18:24:00,73.5,66.9,29.92,South,178,7.0,10.0,80,0.00,,,0.00,Wunderground v.1.13,2013-01-30 23:24:00,
2013-01-30 18:30:00,73.4,67.2,29.92,SSW,196,6.0,7.0,81,0.00,,,0.00,Wunderground v.1.13,2013-01-30 23:30:00,
2013-01-30 18:36:00,73.3,67.5,29.92,SSW,212,5.0,5.0,82,0.00,,,0.00,Wunderground v.1.13,2013-01-30 23:36:00,
2013-01-30 18:42:00,73.2,67.4,29.92,SSW,203,4.0,12.0,82,0.00,,,0.00,Wunderground v.1.13,2013-01-30 23:42:00,
2013-01-30 18:48:00,73.1,67.6,29.92,South,186,6.0,6.0,83,0.00,,,0.00,Wunderground v.1.13,2013-01-30 23:48:00,
2013-01-30 18:54:00,73.0,67.9,29.93,SW,223,7.0,15.0,84,0.00,,,0.00,Wunderground v.1.13,2013-01-30 23:54:00,
2013-01-30 19:00:00,73.0,67.9,29.92,SSW,203,8.0,8.0,84,0.00,,,0.00,Wunderground v.1.13,2013-01-31 00:00:00,
2013-01-30 19:06:00,72.9,67.8,29.92,SSW,194,6.0,6.0,84,0.00,,,0.00,Wunderground v.1.13,2013-01-31 00:06:00,
2013-01-30 19:12:00,72.8,67.7,29.92,SSW,206,5.0,7.0,84,0.00,,,0.00,Wunderground v.1.13,2013-01-31 00:12:00,
2013-01-30 19:18:00,72.8,67.7,29.92,South,184,5.0,11.0,84,0.00,,,0.00,Wunderground v.1.13,2013-01-31 00:18:00,
2013-01-30 19:24:00,72.7,67.2,29.91,SSW,198,7.0,7.0,83,0.00,,,0.00,Wunderground v.1.13,2013-01-31 00:24:00,
2013-01-30 19:30:00,72.7,67.2,29.92,South,186,7.0,11.0,83,0.00,,,0.00,Wunderground v.1.13,2013-01-31 00:30:00,
2013-01-30 19:36:00,72.6,66.8,29.92,SSW,208,7.0,7.0,82,0.00,,,0.00,Wunderground v.1.13,2013-01-31 00:36:00,
2013-01-30 19:42:00,72.5,67.0,29.92,South,176,5.0,5.0,83,0.00,,,0.00,Wunderground v.1.13,2013-01-31 00:42:00,
2013-01-30 19:48:00,72.5,67.0,29.92,South,173,4.0,4.0,83,0.00,,,0.00,Wunderground v.1.13,2013-01-31 00:48:00,
2013-01-30 19:54:00,72.5,67.0,29.92,SW,222,6.0,6.0,83,0.00,,,0.00,Wunderground v.1.13,2013-01-31 00:54:00,
2013-01-30 20:00:00,72.4,66.9,29.92,SSW,204,8.0,11.0,83,0.00,,,0.00,Wunderground v.1.13,2013-01-31 01:00:00,
2013-01-30 20:06:00,72.4,66.9,29.92,SW,223,5.0,10.0,83,0.00,,,0.00,Wunderground v.1.13,2013-01-31 01:06:00,
2013-01-30 20:12:00,72.2,67.1,29.92,South,182,5.0,5.0,84,0.00,,,0.00,Wunderground v.1.13,2013-01-31 01:12:00,
2013-01-30 20:18:00,72.2,67.1,29.92,SW,215,7.0,7.0,84,0.00,,,0.00,Wunderground v.1.13,2013-01-31 01:18:00,
2013-01-30 20:24:00,72.2,67.1,29.92,SSW,207,7.0,7.0,84,0.00,,,0.00,Wunderground v.1.13,2013-01-31 01:24:00,
2013-01-30 20:30:00,72.2,67.1,29.92,SSW,202,7.0,12.0,84,0.00,,,0.00,Wunderground v.1.13,2013-01-31 01:30:00,
2013-01-30 20:36:00,72.2,67.1,29.93,South,175,5.0,5.0,84,0.00,,,0.00,Wunderground v.1.13,2013-01-31 01:36:00,
2013-01-30 20:42:00,72.1,67.0,29.92,SSW,211,7.0,9.0,84,0.00,,,0.00,Wunderground v.1.13,2013-01-31 01:42:00,
2013-01-30 20:48:00,72.0,67.2,29.93,South,190,6.0,6.0,85,0.00,,,0.00,Wunderground v.1.13,2013-01-31 01:48:00,
2013-01-30 20:54:00,72.0,67.2,29.93,SSE,168,6.0,7.0,85,0.00,,,0.00,Wunderground v.1.13,2013-01-31 01:54:00,
2013-01-30 21:00:00,72.0,67.2,29.92,SSW,195,6.0,6.0,85,0.00,,,0.00,Wunderground v.1.13,2013-01-31 02:00:00,
2013-01-30 21:06:00,72.0,67.2,29.92,South,179,6.0,6.0,85,0.00,,,0.00,Wunderground v.1.13,2013-01-31 02:06:00,
2013-01-30 21:12:00,72.0,67.2,29.92,SSW,201,6.0,7.0,85,0.00,,,0.00,Wunderground v.1.13,2013-01-31 02:12:00,
2013-01-30 21:18:00,72.0,67.2,29.92,South,190,7.0,7.0,85,0.00,,,0.00,Wunderground v.1.13,2013-01-31 02:18:00,
2013-01-30 21:24:00,72.0,67.2,29.92,South,190,6.0,6.0,85,0.00,,,0.00,Wunderground v.1.13,2013-01-31 02:24:00,
2013-01-30 21:30:00,71.9,67.5,29.92,South,176,6.0,6.0,86,0.00,,,0.00,Wunderground v.1.13,2013-01-31 02:30:00,
2013-01-30 21:36:00,71.8,67.4,29.92,SSW,203,7.0,7.0,86,0.00,,,0.00,Wunderground v.1.13,2013-01-31 02:36:00,
2013-01-30 21:42:00,71.9,67.5,29.92,SSE,157,8.0,10.0,86,0.00,,,0.00,Wunderground v.1.13,2013-01-31 02:42:00,
2013-01-30 21:48:00,71.8,67.4,29.92,SSW,201,8.0,8.0,86,0.00,,,0.00,Wunderground v.1.13,2013-01-31 02:48:00,
2013-01-30 21:54:00,71.8,67.4,29.93,SSW,207,8.0,10.0,86,0.00,,,0.00,Wunderground v.1.13,2013-01-31 02:54:00,
2013-01-30 22:00:00,71.8,67.0,29.93,SSW,207,8.0,10.0,85,0.00,,,0.00,Wunderground v.1.13,2013-01-31 03:00:00,
2013-01-30 22:06:00,71.7,67.3,29.93,SSW,205,7.0,9.0,86,0.00,,,0.00,Wunderground v.1.13,2013-01-31 03:06:00,
2013-01-30 22:12:00,71.8,67.4,29.93,SSW,205,5.0,10.0,86,0.00,,,0.00,Wunderground v.1.13,2013-01-31 03:12:00,
2013-01-30 22:18:00,71.8,67.4,29.93,South,188,7.0,9.0,86,0.00,,,0.00,Wunderground v.1.13,2013-01-31 03:18:00,
2013-01-30 22:24:00,71.9,67.5,29.93,SW,229,10.0,10.0,86,0.00,,,0.00,Wunderground v.1.13,2013-01-31 03:24:00,
2013-01-30 22:30:00,71.7,67.3,29.93,South,169,8.0,10.0,86,0.00,,,0.00,Wunderground v.1.13,2013-01-31 03:30:00,
2013-01-30 22:36:00,71.7,67.6,29.92,SSW,203,7.0,9.0,87,0.00,,,0.00,Wunderground v.1.13,2013-01-31 03:36:00,
2013-01-30 22:42:00,71.7,67.3,29.92,SSW,200,7.0,9.0,86,0.00,,,0.00,Wunderground v.1.13,2013-01-31 03:42:00,
2013-01-30 22:48:00,71.7,67.6,29.92,SSW,202,6.0,16.0,87,0.00,,,0.00,Wunderground v.1.13,2013-01-31 03:48:00,
2013-01-30 22:54:00,71.7,67.6,29.92,SSW,202,8.0,8.0,87,0.00,,,0.00,Wunderground v.1.13,2013-01-31 03:54:00,
2013-01-30 23:00:00,71.6,67.5,29.92,SSW,192,9.0,9.0,87,0.00,,,0.00,Wunderground v.1.13,2013-01-31 04:00:00,
2013-01-30 23:06:00,71.5,67.4,29.92,SW,214,8.0,13.0,87,0.00,,,0.00,Wunderground v.1.13,2013-01-31 04:06:00,
2013-01-30 23:12:00,71.3,67.2,29.92,South,184,9.0,10.0,87,0.00,,,0.00,Wunderground v.1.13,2013-01-31 04:12:00,
2013-01-30 23:18:00,71.4,67.3,29.93,SSW,205,6.0,6.0,87,0.00,,,0.00,Wunderground v.1.13,2013-01-31 04:18:00,
2013-01-30 23:24:00,71.5,67.4,29.93,SW,221,7.0,9.0,87,0.00,,,0.00,Wunderground v.1.13,2013-01-31 04:24:00,
2013-01-30 23:30:00,71.6,67.5,29.92,SSW,198,7.0,13.0,87,0.00,,,0.00,Wunderground v.1.13,2013-01-31 04:30:00,
2013-01-30 23:36:00,71.7,67.6,29.92,SSW,202,7.0,8.0,87,0.00,,,0.00,Wunderground v.1.13,2013-01-31 04:36:00,
2013-01-30 23:42:00,71.7,67.6,29.92,SSW,205,6.0,7.0,87,0.00,,,0.00,Wunderground v.1.13,2013-01-31 04:42:00,
2013-01-30 23:48:00,71.8,67.7,29.92,SSW,207,6.0,6.0,87,0.00,,,0.00,Wunderground v.1.13,2013-01-31 04:48:00,
2013-01-30 23:54:00,71.8,67.7,29.92,South,190,6.0,6.0,87,0.00,,,0.00,Wunderground v.1.13,2013-01-31 04:54:00,